Regional Weather Roundup
Issued by NWS

Home | Current Version | Previous Version | Graphics & Text | Print | Product List | Glossary On
Versions: 1 2 3 4 5 6 7 8 9 10 11 12 13 14 15 16 17 18 19 20 21 22 23 24 25 26 27 28 29 30 31 32 33 34 35 36 37 38 39 40 41 42 43 44 45 46 47 48 49 50
000
ASUS43 KBIS 290602
RWRND

NORTH DAKOTA REGIONAL WEATHER ROUNDUP
NATIONAL WEATHER SERVICE BISMARCK ND
100 AM CDT SAT APR 29 2017

NOTE: "FAIR" INDICATES FEW OR NO CLOUDS BELOW 12,000 FEET WITH NO
SIGNIFICANT WEATHER AND/OR OBSTRUCTIONS TO VISIBILITY.


NDZ001>003-009>011-017-290700-
NORTHWEST NORTH DAKOTA

CITY           SKY/WX    TMP DP  RH WIND       PRES   REMARKS
WILLISTON      FAIR      43  25  49 CALM      30.16S
6HR MIN TEMP:  40; 6HR MAX TEMP:  57;

MINOT          FAIR      40  21  46 CALM      30.17F
MINOT AFB      CLEAR     36  23  60 S3        30.17S
$$

NDZ018>021-031>035-040>046-290700-
SOUTHWEST NORTH DAKOTA

CITY           SKY/WX    TMP DP  RH WIND       PRES   REMARKS
BISMARCK       FAIR      33  24  69 CALM      30.21S
6HR MIN TEMP:  30; 6HR MAX TEMP:  57;

DICKINSON      FAIR      29  16  58 S7        30.18R
GARRISON         N/A     37  20  50 CALM      30.18S
6HR MIN TEMP:  36; 6HR MAX TEMP:  53;

HETTINGER ARPT PTCLDY    29  22  75 CALM      30.21S
$$

NDZ004>008-012>016-024-026-027-054-290700-
NORTHEAST NORTH DAKOTA

CITY           SKY/WX    TMP DP  RH WIND       PRES   REMARKS
GRAND FORKS    CLEAR     35  28  75 NW3       30.20R
GRND FRKS AFB  CLEAR     33  26  75 NW5       30.21R
DEVILS LAKE    FAIR      36  27  69 S3        30.22R
$$

NDZ022-023-025-028>030-036>039-047>053-290700-
SOUTHEAST NORTH DAKOTA

CITY           SKY/WX    TMP DP  RH WIND       PRES   REMARKS
FARGO          CLEAR     32  25  75 CALM      30.20R
6HR MIN TEMP:  32; 6HR MAX TEMP:  53;

JAMESTOWN      FAIR      33  30  88 NE5       30.20R
$$




USA.gov is the U.S. government's official web portal to all federal, state and local government web resources and services.